Voltar ao catálogo

CZ-3C DEB

LostGTO
NORAD 40199·DEBRIS·🇨🇳 China

Lançado Feb 24, 2012 de Xichang Satellite Launch Center

Loading…

TLE

ObsoletoSource: Space-Track

Época: Dec 25, 2025, 15:45 UTC

1 40199U 12008J   25359.65683824 -.00000137  00000-0  29282-2 0  9997
2 40199  17.8317 248.0470 7238305 222.7414  49.8667  2.09203849 92577

Acompanhe CZ-3C DEB em tempo real com AllMySat

Download on the App Store